User: anonymous   Login
Location: Brno
(49.2000°N, 16.6330°E)
Time: 01:41:58
(UTC+02:00)
Language:

Meteor 1-4 Rocket - Orbit

View from above orbital plane
View from above orbital plane
View from above satellite
View from above satellite

Ground track
Ground track

The orbit data is extracted from the following two-line orbital elements,

1 04394U 70037B   16238.22590148  .00001341  00000-0  47869-4 0  9995
2 04394  81.2447   2.0957 0042681  55.0416 305.4815 15.27196696519589
Epoch (UTC): 25 August 2016 05:25:17
Eccentricity: 0.0042681
inclination: 81.2447°
perigee height: 455 km
apogee height: 513 km
right ascension of ascending node: 2.0957°
argument of perigee: 55.0416°
revolutions per day: 15.27196696
mean anomaly at epoch: 305.4815°
orbit number at epoch: 51958

The dashed part of the orbit path shows where the satellite is in the earth's shadow,  

DLR